Temp
52 53 56 58 59 59 61 61 60 61 63 63 63 62 62 60 60 59 58 57 57 55
53 54 55 58 59 58 59 60 63 63 61 63 63 62 61 59 58 58 58 56 55 55
51 54 57 58 59 58 58 60 61 61 59 62 62 61 60 58 59 58 57 57 55 54
50 53 56 56 59 58 58 58 59 60 59 61 61 61 60 58 58 58 56 56 55 53
49 52 54 53 55 59 58 57 58 61 61 61 60 60 59 58 59 57 55 55 55 54
47 48 51 53 53 55 59 56 59 60 61 61 60 60 59 59 58 57 56 57 56 54
45 48 51 55 55 55 59 57 58 60 60 60 60 60 59 59 59 58 58 57 55 54
46 50 52 52 54 58 58 58 59 59 59 59 59 59 59 58 57 56 54 54 54 53
46 49 50 51 53 55 58 58 59 59 59 57 58 58 58 57 55 55 54 53 54 55
46 48 49 49 51 53 57 59 58 58 57 56 57 58 57 56 55 53 53 52 52 52
45 47 47 48 49 53 57 58 57 56 56 55 56 57 56 55 52 50 49 47 46 44
45 46 46 46 48 54 57 55 55 55 54 53 53 55 53 51 49 47 46 46 46 45
46 46 45 46 49 54 55 54 54 53 53 53 51 53 53 51 48 46 45 46 46 49
45 45 46 46 53 52 51 52 51 50 50 50 51 52 53 52 48 46 44 43 43 45
MSLP
1009.48 1008.69 1008.18 1006.87 1005.83 1005.38 1004.50 1004.00 1004.22 1004.28 1004.47 1004.80 1005.60 1005.93 1006.90 1008.40 1008.34 1008.45 1008.82 1009.52 1010.12 1010.90
1009.79 1008.52 1007.87 1006.46 1005.53 1005.15 1004.33 1003.87 1003.97 1004.19 1004.29 1004.59 1004.78 1005.33 1005.68 1007.59 1008.64 1008.54 1009.00 1009.59 1010.50 1011.19
1009.68 1008.63 1007.43 1006.51 1005.55 1005.07 1004.23 1003.91 1003.96 1004.11 1004.52 1004.81 1005.27 1005.78 1005.75 1007.52 1008.50 1008.70 1009.41 1009.96 1010.80 1011.53
1009.69 1008.55 1007.57 1006.84 1005.74 1004.83 1004.23 1003.95 1004.13 1004.46 1004.73 1004.99 1005.25 1005.88 1006.64 1007.32 1008.50 1008.91 1009.40 1010.42 1011.00 1011.73
1009.78 1008.78 1007.71 1006.94 1006.03 1004.98 1004.25 1004.18 1004.29 1004.50 1004.76 1004.95 1005.31 1006.11 1006.64 1007.41 1008.55 1008.94 1009.88 1010.91 1011.40 1012.03
1009.75 1008.79 1007.79 1006.94 1006.16 1005.01 1004.33 1004.31 1004.47 1004.45 1004.60 1004.89 1005.44 1006.04 1006.64 1007.63 1008.78 1009.44 1010.25 1011.18 1011.85 1012.58
1009.63 1008.63 1007.65 1006.65 1005.69 1004.78 1004.25 1004.20 1004.58 1004.59 1004.58 1004.59 1005.03 1006.10 1007.10 1008.12 1009.08 1009.79 1010.81 1011.68 1012.38 1012.93
1009.94 1008.71 1007.26 1006.19 1005.40 1004.57 1003.97 1004.05 1004.38 1004.60 1004.83 1005.00 1005.29 1006.45 1007.29 1008.53 1009.40 1010.35 1011.46 1012.36 1013.06 1013.61
1009.41 1008.52 1006.96 1006.01 1005.23 1004.42 1003.68 1003.99 1004.29 1004.54 1004.92 1005.65 1006.37 1007.12 1008.06 1008.89 1009.98 1011.17 1012.13 1013.07 1013.76 1014.63
1009.40 1008.35 1007.22 1006.27 1005.42 1004.55 1003.49 1003.77 1004.13 1004.67 1005.43 1006.22 1006.81 1007.79 1008.57 1009.68 1010.82 1012.04 1012.99 1013.95 1014.73 1015.60
1009.17 1008.28 1007.38 1006.24 1005.27 1004.01 1003.63 1003.45 1004.00 1004.77 1005.70 1006.59 1007.78 1008.41 1009.51 1010.70 1011.91 1013.17 1014.26 1015.44 1015.98 1016.79
1009.03 1008.16 1007.14 1006.41 1005.13 1003.50 1002.53 1003.51 1004.31 1004.86 1006.20 1007.37 1008.66 1009.36 1010.37 1011.47 1012.97 1014.45 1015.59 1016.52 1017.35 1017.67
1009.16 1008.13 1007.29 1006.04 1004.13 1003.15 1002.72 1004.22 1005.14 1006.06 1007.20 1008.41 1009.70 1010.17 1011.25 1012.08 1013.49 1015.17 1016.24 1017.75 1018.15 1018.89
1008.93 1008.00 1007.25 1005.86 1004.43 1003.81 1004.55 1005.17 1005.59 1007.03 1008.58 1009.70 1010.57 1011.61 1012.26 1012.95 1014.09 1015.12 1016.94 1018.02 1019.05 1019.96
Wind_Speed
13 8 9 11 9 8 7 6 6 7 7 8 9 10 8 1 3 5 6 8 5 4
11 11 11 14 9 7 6 3 8 9 8 8 9 10 13 7 3 6 6 7 6 5
12 12 13 13 10 7 4 5 5 7 6 7 11 12 13 7 5 8 6 7 9 6
13 13 12 10 12 6 3 2 1 2 5 8 10 10 10 11 9 11 11 8 10 8
12 12 12 11 11 11 5 3 4 1 6 11 10 11 12 12 10 13 13 11 12 10
13 12 13 12 11 10 6 3 3 4 8 11 12 12 13 13 11 12 13 13 13 10
12 14 14 12 10 8 7 6 4 4 7 9 16 14 14 14 14 14 12 12 10 9
12 13 15 13 9 10 7 6 5 7 9 10 13 11 15 15 15 16 14 12 11 11
12 13 14 14 13 10 7 8 8 10 10 10 8 23 23 19 15 15 15 14 14 13
13 13 13 15 15 7 7 12 11 12 13 13 16 28 28 25 15 15 15 14 14 14
13 14 13 15 15 11 7 13 11 15 16 15 16 29 30 28 17 15 15 13 14 15
13 14 14 14 16 13 12 13 12 17 18 18 18 31 31 24 17 16 15 13 12 13
12 12 13 17 15 3 12 13 12 17 17 23 18 29 30 23 14 16 13 13 14 20
11 12 12 14 4 11 13 13 16 17 15 16 18 19 27 26 15 14 13 11 10 10
Wind_Direction
308 304 295 293 286 286 258 233 204 177 157 158 145 127 114 270 160 166 137 134 125 119
303 320 298 312 289 284 274 247 199 174 166 175 158 158 143 133 186 144 125 109 112 112
315 311 318 320 291 281 291 238 185 168 152 164 144 146 131 120 149 130 127 110 107 102
317 314 321 314 308 279 292 356 64 181 176 148 142 139 141 135 145 133 111 104 107 99
311 315 312 314 304 303 285 342 10 186 175 159 150 141 131 133 139 126 116 114 109 103
314 315 310 308 284 295 252 190 277 215 168 170 154 138 138 131 131 121 115 117 116 114
315 313 303 314 294 275 236 180 203 177 146 145 132 127 127 128 123 111 108 110 102 96
308 303 311 334 304 323 195 171 166 147 129 115 115 127 123 121 113 107 100 91 88 89
321 317 326 327 323 328 203 171 152 131 124 120 126 123 119 114 107 106 103 99 94 97
319 322 327 323 321 294 229 171 162 134 128 123 120 120 111 107 104 104 102 103 106 98
323 324 326 321 319 275 262 156 146 131 122 119 119 113 109 105 100 95 92 94 98 102
320 321 323 315 307 291 156 125 131 118 116 116 114 115 113 106 100 96 94 94 97 104
314 316 318 303 322 135 109 118 112 112 115 118 118 118 119 115 111 108 103 97 100 104
311 315 314 310 273 87 89 102 107 98 102 110 116 117 119 119 118 116 111 109 103 107